User: anonymous
Location: Caltech
(34.1382°N, 118.1253°W)
Time: 11:14:52
(UTC-07:00)
Language:

BREEZE M DEB (TANK) - Orbit

View from above orbital plane
View from above orbital plane
View from above satellite
View from above satellite

Ground track
Ground track

The orbit data is extracted from the following two-line orbital elements,

1 33437U 08057B   14240.87052300  .00001541  00000-0  48506-3 0   792
2 33437 049.5795 038.2363 5007701 054.5254 042.3389 05.55858516116680
Epoch (UTC): 28 August 2014 20:53:33
Eccentricity: 0.5007701
inclination: 49.5795°
perigee height: 342 km
apogee height: 13824 km
right ascension of ascending node: 38.2363°
argument of perigee: 54.5254°
revolutions per day: 5.55858516
mean anomaly at epoch: 42.3389°
orbit number at epoch: 11668

The dashed part of the orbit path shows where the satellite is in the earth's shadow,  

DLR